Meteo orario Abaete

Oggi, 18 Giugno, Venerdi

Tempo Temperatura Precipitazioni Vento Pressione Umidità
00:00 +17°C° 0 mm 2 m/s 709 mm Hg 52%
01:00 +16°C° 0 mm 2 m/s 709 mm Hg 54%
02:00 +15°C° 0 mm 2 m/s 709 mm Hg 57%
03:00 +15°C° 0 mm 2 m/s 709 mm Hg 60%
04:00 +14°C° 0 mm 2 m/s 709 mm Hg 62%
05:00 +14°C° 0 mm 1 m/s 709 mm Hg 65%
06:00 +14°C° 0 mm 1 m/s 710 mm Hg 67%
07:00 +16°C° 0 mm 1 m/s 710 mm Hg 61%
08:00 +18°C° 0 mm 2 m/s 711 mm Hg 55%
09:00 +20°C° 0 mm 2 m/s 712 mm Hg 48%
10:00 +24°C° 0 mm 2 m/s 712 mm Hg 44%
11:00 +26°C° 0 mm 1 m/s 712 mm Hg 39%
12:00 +28°C° 0 mm 1 m/s 711 mm Hg 34%
13:00 +29°C° 0 mm 1 m/s 711 mm Hg 31%
14:00 +29°C° 0 mm 1 m/s 710 mm Hg 29%
15:00 +30°C° 0 mm 1 m/s 710 mm Hg 27%
16:00 +27°C° 0 mm 1 m/s 709 mm Hg 31%
17:00 +25°C° 0 mm 1 m/s 709 mm Hg 36%
18:00 +23°C° 0 mm 1 m/s 709 mm Hg 41%
19:00 +22°C° 0 mm 1 m/s 709 mm Hg 43%
20:00 +21°C° 0 mm 1 m/s 710 mm Hg 45%
21:00 +20°C° 0 mm 1 m/s 710 mm Hg 47%
22:00 +20°C° 0 mm 1 m/s 710 mm Hg 52%
23:00 +19°C° 0 mm 1 m/s 710 mm Hg 58%

Domani, 19 Giugno, Sabato

Tempo Temperatura Precipitazioni Vento Pressione Umidità
00:00 +18°C° 0 mm 1 m/s 710 mm Hg 63%
01:00 +16°C° 0 mm 1 m/s 710 mm Hg 68%
02:00 +16°C° 0 mm 1 m/s 710 mm Hg 74%
03:00 +15°C° 0 mm 1 m/s 710 mm Hg 80%
04:00 +15°C° 0 mm 1 m/s 710 mm Hg 83%
05:00 +14°C° 0 mm 1 m/s 710 mm Hg 86%
06:00 +13°C° 0 mm 0 m/s 710 mm Hg 89%
07:00 +16°C° 0 mm 1 m/s 711 mm Hg 80%
08:00 +18°C° 0 mm 2 m/s 711 mm Hg 72%
09:00 +20°C° 0 mm 3 m/s 712 mm Hg 63%
10:00 +24°C° 0 mm 3 m/s 712 mm Hg 55%
11:00 +26°C° 0 mm 3 m/s 712 mm Hg 47%
12:00 +28°C° 0 mm 3 m/s 711 mm Hg 39%
13:00 +29°C° 0 mm 3 m/s 711 mm Hg 36%
14:00 +29°C° 0 mm 3 m/s 710 mm Hg 33%
15:00 +30°C° 0 mm 3 m/s 709 mm Hg 30%
16:00 +28°C° 0 mm 3 m/s 709 mm Hg 35%
17:00 +26°C° 0 mm 2 m/s 709 mm Hg 39%
18:00 +24°C° 0 mm 2 m/s 709 mm Hg 44%
19:00 +23°C° 0 mm 2 m/s 709 mm Hg 47%
20:00 +23°C° 0 mm 2 m/s 710 mm Hg 50%
21:00 +21°C° 0 mm 2 m/s 710 mm Hg 52%
22:00 +20°C° 0 mm 2 m/s 710 mm Hg 58%
23:00 +19°C° 0 mm 2 m/s 710 mm Hg 65%

Dopodomani, 20 Giugno, Domenica

Tempo Temperatura Precipitazioni Vento Pressione Umidità
00:00 +18°C° 0 mm 2 m/s 710 mm Hg 71%
01:00 +17°C° 0 mm 2 m/s 709 mm Hg 74%
02:00 +16°C° 0 mm 1 m/s 709 mm Hg 76%
03:00 +16°C° 0 mm 1 m/s 709 mm Hg 79%
04:00 +16°C° 0 mm 1 m/s 709 mm Hg 81%
05:00 +15°C° 0 mm 1 m/s 709 mm Hg 83%
06:00 +15°C° 0 mm 1 m/s 709 mm Hg 84%
07:00 +18°C° 0 mm 1 m/s 709 mm Hg 75%
08:00 +19°C° 0 mm 2 m/s 710 mm Hg 66%
09:00 +23°C° 0 mm 2 m/s 711 mm Hg 58%
10:00 +25°C° 0 mm 3 m/s 710 mm Hg 51%
11:00 +27°C° 0 mm 3 m/s 710 mm Hg 44%
12:00 +30°C° 0 mm 4 m/s 710 mm Hg 37%
13:00 +30°C° 0 mm 4 m/s 709 mm Hg 34%
14:00 +32°C° 0 mm 4 m/s 708 mm Hg 31%
15:00 +33°C° 0 mm 4 m/s 708 mm Hg 28%
16:00 +30°C° 0 mm 3 m/s 708 mm Hg 31%
17:00 +29°C° 0 mm 2 m/s 708 mm Hg 35%
18:00 +27°C° 0 mm 2 m/s 708 mm Hg 38%
19:00 +26°C° 0 mm 2 m/s 708 mm Hg 41%
20:00 +25°C° 0 mm 1 m/s 708 mm Hg 44%
21:00 +24°C° 0 mm 1 m/s 708 mm Hg 46%
22:00 +23°C° 0 mm 1 m/s 709 mm Hg 48%
23:00 +22°C° 0 mm 1 m/s 709 mm Hg 51%

21 Giugno, Lunedi

Tempo Temperatura Precipitazioni Vento Pressione Umidità
00:00 +21°C° 0 mm 1 m/s 709 mm Hg 53%
01:00 +21°C° 0 mm 1 m/s 709 mm Hg 54%
02:00 +19°C° 0 mm 2 m/s 708 mm Hg 56%
03:00 +18°C° 0 mm 2 m/s 708 mm Hg 58%
04:00 +19°C° 0 mm 1 m/s 708 mm Hg 60%
05:00 +18°C° 0 mm 1 m/s 708 mm Hg 62%
06:00 +18°C° 0 mm 1 m/s 709 mm Hg 64%
07:00 +20°C° 0 mm 1 m/s 709 mm Hg 57%
08:00 +23°C° 0 mm 1 m/s 710 mm Hg 50%
09:00 +25°C° 0 mm 1 m/s 711 mm Hg 43%
10:00 +27°C° 0 mm 1 m/s 711 mm Hg 39%
11:00 +29°C° 0 mm 1 m/s 710 mm Hg 34%
12:00 +32°C° 0 mm 1 m/s 710 mm Hg 29%
13:00 +32°C° 0 mm 1 m/s 710 mm Hg 28%
14:00 +32°C° 0 mm 1 m/s 709 mm Hg 27%
15:00 +33°C° 0 mm 1 m/s 708 mm Hg 26%
16:00 +30°C° 0 mm 1 m/s 708 mm Hg 30%
17:00 +28°C° 0 mm 1 m/s 708 mm Hg 35%
18:00 +26°C° 0 mm 2 m/s 708 mm Hg 39%
19:00 +25°C° 0 mm 1 m/s 708 mm Hg 42%
20:00 +24°C° 0 mm 1 m/s 708 mm Hg 44%
21:00 +21°C° 0 mm 0 m/s 708 mm Hg 46%
22:00 +20°C° 0 mm 0 m/s 708 mm Hg 48%
23:00 +20°C° 0 mm 0 m/s 708 mm Hg 49%

22 Giugno, Martedi

Tempo Temperatura Precipitazioni Vento Pressione Umidità
00:00 +19°C° 0 mm 0 m/s 708 mm Hg 51%
01:00 +19°C° 0 mm 0 m/s 708 mm Hg 52%
02:00 +18°C° 0 mm 0 m/s 708 mm Hg 54%
03:00 +18°C° 0 mm 0 m/s 708 mm Hg 55%
04:00 +18°C° 0 mm 0 m/s 708 mm Hg 56%
05:00 +17°C° 0 mm 0 m/s 708 mm Hg 58%
06:00 +19°C° 0 mm 1 m/s 708 mm Hg 59%
07:00 +21°C° 0 mm 1 m/s 709 mm Hg 53%
08:00 +23°C° 0 mm 1 m/s 709 mm Hg 47%
09:00 +26°C° 0 mm 1 m/s 710 mm Hg 41%
10:00 +28°C° 0 mm 1 m/s 710 mm Hg 36%
11:00 +30°C° 0 mm 2 m/s 710 mm Hg 31%
12:00 +32°C° 0 mm 2 m/s 710 mm Hg 26%
13:00 +34°C° 0 mm 2 m/s 709 mm Hg 25%
14:00 +34°C° 0 mm 2 m/s 708 mm Hg 24%
15:00 +35°C° 0 mm 2 m/s 708 mm Hg 23%
16:00 +32°C° 0 mm 2 m/s 707 mm Hg 27%
17:00 +29°C° 0 mm 2 m/s 707 mm Hg 31%
18:00 +27°C° 0 mm 2 m/s 707 mm Hg 35%
19:00 +26°C° 0 mm 1 m/s 707 mm Hg 37%
20:00 +25°C° 0 mm 1 m/s 708 mm Hg 38%
21:00 +23°C° 0 mm 0 m/s 708 mm Hg 40%
22:00 +24°C° 0 mm 1 m/s 708 mm Hg 42%
23:00 +23°C° 0 mm 1 m/s 708 mm Hg 44%

23 Giugno, Mercoledi

Tempo Temperatura Precipitazioni Vento Pressione Umidità
00:00 +23°C° 0 mm 1 m/s 708 mm Hg 46%
01:00 +22°C° 0 mm 1 m/s 708 mm Hg 47%
02:00 +22°C° 0 mm 1 m/s 708 mm Hg 49%
03:00 +21°C° 0 mm 1 m/s 708 mm Hg 51%
04:00 +21°C° 0 mm 1 m/s 708 mm Hg 54%
05:00 +20°C° 0 mm 1 m/s 708 mm Hg 57%
06:00 +19°C° 0 mm 1 m/s 708 mm Hg 61%
07:00 +20°C° 0 mm 2 m/s 709 mm Hg 57%
08:00 +23°C° 0 mm 2 m/s 709 mm Hg 53%
09:00 +25°C° 0 mm 2 m/s 710 mm Hg 50%
10:00 +27°C° 0 mm 2 m/s 710 mm Hg 44%
11:00 +30°C° 0 mm 2 m/s 710 mm Hg 39%
12:00 +32°C° 0 mm 2 m/s 710 mm Hg 33%
13:00 +32°C° 0 mm 1 m/s 709 mm Hg 31%
14:00 +33°C° 0 mm 1 m/s 708 mm Hg 29%
15:00 +34°C° 0 mm 1 m/s 708 mm Hg 27%
16:00 +31°C° 0 mm 1 m/s 707 mm Hg 31%
17:00 +29°C° 0 mm 1 m/s 707 mm Hg 35%
18:00 +27°C° 0 mm 1 m/s 707 mm Hg 39%
19:00 +26°C° 0 mm 2 m/s 708 mm Hg 45%
20:00 +25°C° 0 mm 3 m/s 708 mm Hg 52%
21:00 +23°C° 0 mm 4 m/s 708 mm Hg 58%
22:00 +22°C° 0 mm 3 m/s 708 mm Hg 66%
23:00 +20°C° 0 mm 2 m/s 708 mm Hg 74%
Mostrare altro

Abbiamo bisogno del tuo consenso

Meteoprog e i nostri fornitori di servizi possono memorizzare e accedere a dati personali come cookie, identificatori di dispositivi o altre tecnologie simili sul tuo dispositivo e possono elaborare tali dati per personalizzare i contenuti e gli annunci, nonché fornire funzionalità dei social media e analizzarne il traffico.

  • Archiviare e/o accedere alle informazioni sul tuo dispositivo

    Cookie, identificatori di dispositivi o altre informazioni possono essere memorizzati o resi accessibili sul tuo dispositivo per le finalità sopra indicate.

  • Annunci e contenuti personalizzati, misurazione di annunci e contenuti, approfondimenti sul pubblico e sviluppo di prodotti

    Gli annunci e i contenuti possono essere personalizzati in base a un profilo. È possibile aggiungere più dati per personalizzare meglio annunci e contenuti. È possibile misurare il rendimento degli annunci e dei contenuti. È possibile ricavare informazioni sul pubblico che ha visto gli annunci e i contenuti. Tali dati possono essere utilizzati per sviluppare o migliorare l'esperienza, i sistemi e il software dell'utente.

Cliccando su “Accetto”, acconsenti all'uso di cookie, identificatori di dispositivo, web beacon o altre tecnologie simili. Puoi modificare le impostazioni nel browser del tuo dispositivo.

Per determinati scopi, è possibile fare affidamento su interessi legali, piuttosto che sul consenso. Puoi approfondire questo argomento consultando la nostra Informativa sulla privacy e sui cookie.